Location: Moscow
(55.7500°N, 37.5830°E)
Time: 07:36:34
(UTC+03:00)

N. Korean satellite - Pass Details

Date: 27 October 2021
Orbit: 446 x 495 km, 97.3° (Epoch: 04 December)

Event Time Altitude Azimuth Distance (km) Brightness Sun altitude
Rises 17:46:55 0° 203° (SSW) 2,550 10.8 -7.0°
Reaches altitude 10° 17:49:24 10° 221° (SW) 1,683 10.2 -7.4°
Maximum altitude 17:52:05 20° 269° (W) 1,215 9.8 -7.7°
Drops below altitude 10° 17:54:49 10° 318° (NW) 1,707 9.8 -8.1°
Sets 17:57:22 0° 336° (NNW) 2,600 10.5 -8.5°
